McGuire AFB, NJ

5:41 PM EDT on May 22, 2017 (GMT -0400)
McGuire Air Force Base

Weather History for KWRI - August, 2013

Change the Weather History Date:

Friday, August 30, 2013

  Actual Average Record
Temperature  
Mean Temperature 73 °F -  
Max Temperature 82 °F 80 °F 93 °F (2010)
Min Temperature 64 °F 61 °F 54 °F (2014)
Cooling Degree Days 8    
Growing Degree Days 23 (Base 50)    
Moisture  
Dew Point 68 °F    
Average Humidity 81    
Maximum Humidity 100    
Minimum Humidity 65    
Precipitation  
Precipitation 0.00 in - - ()
Sea Level Pressure  
Sea Level Pressure 29.96 in    
Wind  
Wind Speed 6 mph (SW)    
Max Wind Speed 16 mph    
Max Gust Speed 18 mph    
Visibility 10 miles    
Events Rain    
Averages and records for this station are not official NWS values.
T = Trace of Precipitation, MM = Missing Value Source: NWS Daily Summary

Daily Weather History Graph

Daily Weather History Graph

Search for Another Location

Airport or City:

Trip Planner

Search our weather history database for the weather conditions in past years. The results will help you decide how hot, cold, wet, or windy it might be!

Date:

Astronomy

Aug. 30, 2013 Rise Set
Actual Time 6:24 AM EDT 7:32 PM EDT
Civil Twilight 5:56 AM EDT 8:00 PM EDT
Nautical Twilight 5:23 AM EDT 8:33 PM EDT
Astronomical Twilight 4:48 AM EDT 9:08 PM EDT
Moon 1:01 AM EDT (8/30) 3:46 PM EDT (8/30)
Length of Visible Light 14h 03m
Length of Day
13h 08m
Waning Crescent, 29% of the Moon is Illuminated
Aug 30
Waning Crescent
Sep 5
New
Sep 12
First Quarter
Sep 19
Full
Sep 26
Last Quarter

Hourly Weather History & Observations

Time (EDT) Temp. Heat Index Dew Point Humidity Pressure Visibility Wind Dir Wind Speed Gust Speed Precip Events Conditions
12:11 AM 66.2 °F - 64.4 °F 94% 30.01 in 10.0 mi Variable 3.5 mph - N/A Rain Light Rain
12:15 AM 66.2 °F - 64.4 °F 94% 30.01 in 10.0 mi ESE 1.2 mph - N/A   Clear
12:33 AM 66.2 °F - 64.4 °F 94% 30.01 in 10.0 mi ESE 2.3 mph - N/A Rain Light Rain
12:43 AM 66.2 °F - 64.4 °F 94% 30.01 in 10.0 mi ENE 2.3 mph - N/A   Clear
12:58 AM 64.6 °F - 64.0 °F 98% 30.03 in 10.0 mi ENE 2.3 mph - 0.00 in   Clear
1:02 AM 64.4 °F - 64.4 °F 100% 30.02 in 10.0 mi ENE 1.2 mph - N/A Rain Light Rain
1:06 AM 64.4 °F - 64.4 °F 100% 30.02 in 10.0 mi Calm Calm - N/A   Clear
1:58 AM 65.5 °F - 65.1 °F 99% 30.03 in 10.0 mi Calm Calm - 0.00 in   Mostly Cloudy
2:43 AM 66.2 °F - 64.4 °F 94% 30.01 in 10.0 mi Calm Calm - N/A   Mostly Cloudy
2:58 AM 65.7 °F - 65.5 °F 99% 30.01 in 10.0 mi West 2.3 mph - N/A   Overcast
3:03 AM 66.2 °F - 66.2 °F 100% 30.01 in 10.0 mi WSW 3.5 mph - N/A   Overcast
3:12 AM 66.2 °F - 66.2 °F 100% 30.00 in 10.0 mi WSW 2.3 mph - N/A   Overcast
3:58 AM 66.6 °F - 66.2 °F 99% 30.02 in 10.0 mi West 2.3 mph - N/A   Overcast
4:14 AM 66.2 °F - 66.2 °F 100% 30.01 in 10.0 mi West 2.3 mph - N/A   Mostly Cloudy
4:58 AM 66.6 °F - 66.2 °F 99% 30.01 in 10.0 mi SSW 2.3 mph - N/A   Mostly Cloudy
5:51 AM 68.0 °F - 66.2 °F 94% 30.01 in 10.0 mi SW 3.5 mph - N/A   Overcast
5:58 AM 67.5 °F - 66.4 °F 96% 30.02 in 10.0 mi West 1.2 mph - N/A   Overcast
6:23 AM 68.0 °F - 66.2 °F 94% 30.01 in 10.0 mi SW 4.6 mph - N/A   Overcast
6:58 AM 67.3 °F - 66.4 °F 97% 30.02 in 10.0 mi South 3.5 mph - N/A   Mostly Cloudy
7:03 AM 68.0 °F - 66.2 °F 94% 30.01 in 10.0 mi South 3.5 mph - N/A   Mostly Cloudy
7:58 AM 68.4 °F - 66.6 °F 94% 30.03 in 10.0 mi SW 4.6 mph - N/A   Mostly Cloudy
8:48 AM 71.6 °F - 66.2 °F 83% 30.01 in 10.0 mi WSW 6.9 mph - N/A   Mostly Cloudy
8:58 AM 72.1 °F - 66.2 °F 82% 30.03 in 10.0 mi WSW 8.1 mph - N/A   Overcast
9:21 AM 71.6 °F - 66.2 °F 83% 30.02 in 10.0 mi SW 8.1 mph - N/A   Overcast
9:22 AM 71.6 °F - 66.2 °F 83% 30.02 in 10.0 mi WSW 8.1 mph - N/A   Overcast
9:23 AM 71.6 °F - 66.2 °F 83% 30.02 in 10.0 mi WSW 6.9 mph - N/A   Overcast
9:24 AM 71.6 °F - 66.2 °F 83% 30.02 in 10.0 mi SW 5.8 mph - N/A   Overcast
9:25 AM 71.6 °F - 66.2 °F 83% 30.02 in 10.0 mi SW 6.9 mph - N/A   Overcast
9:27 AM 71.6 °F - 66.2 °F 83% 30.02 in 10.0 mi WSW 5.8 mph - N/A   Overcast
9:58 AM 72.5 °F - 67.1 °F 83% 30.02 in 10.0 mi West 5.8 mph - N/A   Overcast
10:40 AM 75.2 °F - 68.0 °F 78% 30.00 in 10.0 mi SW 9.2 mph - N/A   Scattered Clouds
10:51 AM 75.2 °F - 68.0 °F 78% 30.00 in 10.0 mi SW 8.1 mph - N/A   Mostly Cloudy
10:58 AM 75.9 °F - 67.8 °F 76% 30.01 in 10.0 mi WSW 9.2 mph - N/A   Mostly Cloudy
11:33 AM 77.0 °F - 68.0 °F 74% 30.00 in 10.0 mi West 5.8 mph - N/A Rain Light Rain
11:53 AM 77.0 °F - 68.0 °F 74% 29.99 in 10.0 mi West 8.1 mph - N/A Rain Light Rain
11:58 AM 76.3 °F - 68.0 °F 75% 30.00 in 10.0 mi WSW 6.9 mph - 0.00 in Rain Light Rain
12:01 PM 77.0 °F - 68.0 °F 74% 29.98 in 10.0 mi SW 9.2 mph - N/A Rain Light Rain
12:02 PM 77.0 °F - 68.0 °F 74% 29.98 in 10.0 mi WSW 8.1 mph - N/A   Overcast
12:24 PM 77.0 °F - 68.0 °F 74% 29.98 in 10.0 mi WSW 8.1 mph - N/A   Overcast
12:27 PM 77.0 °F - 68.0 °F 74% 29.98 in 10.0 mi WSW 9.2 mph - N/A   Overcast
12:40 PM 77.0 °F - 68.0 °F 74% 29.97 in 10.0 mi WSW 11.5 mph - N/A   Overcast
12:45 PM 77.0 °F - 68.0 °F 74% 29.97 in 10.0 mi SW 10.4 mph - N/A   Overcast
12:46 PM 77.0 °F - 68.0 °F 74% 29.97 in 10.0 mi SW 10.4 mph - N/A   Overcast
12:48 PM 78.8 °F - 69.8 °F 74% 29.97 in 10.0 mi SW 9.2 mph - N/A Rain Light Rain
12:53 PM 78.8 °F - 69.8 °F 74% 29.96 in 10.0 mi SW 12.7 mph - N/A Rain Light Rain
12:58 PM 79.0 °F - 68.9 °F 71% 29.97 in 10.0 mi SW 6.9 mph - 0.00 in Rain Light Rain
1:01 PM 78.8 °F - 68.0 °F 69% 29.96 in 10.0 mi SW 10.4 mph - N/A Rain Light Rain
1:28 PM 80.6 °F 83.9 °F 69.8 °F 70% 29.96 in 10.0 mi WSW 10.4 mph - N/A Rain Light Rain
1:51 PM 80.6 °F 83.2 °F 68.0 °F 65% 29.95 in 10.0 mi WSW 12.7 mph - N/A Rain Light Rain
1:58 PM 80.6 °F 83.5 °F 68.5 °F 67% 29.95 in 10.0 mi WSW 16.1 mph - 0.00 in Rain Light Rain
2:19 PM 82.4 °F 86.3 °F 69.8 °F 66% 29.93 in 10.0 mi SW 12.7 mph - N/A   Partly Cloudy
2:22 PM 82.4 °F 86.3 °F 69.8 °F 66% 29.93 in 10.0 mi WSW 12.7 mph - N/A Rain Light Rain
2:31 PM 82.4 °F 86.3 °F 69.8 °F 66% 29.93 in 10.0 mi West 16.1 mph 18.4 mph N/A   Partly Cloudy
2:35 PM 82.4 °F 86.3 °F 69.8 °F 66% 29.93 in 10.0 mi WSW 12.7 mph 18.4 mph N/A Rain Light Rain
2:49 PM 80.6 °F 83.9 °F 69.8 °F 70% 29.93 in 10.0 mi WSW 13.8 mph - N/A   Partly Cloudy
2:58 PM 81.5 °F 84.8 °F 69.3 °F 66% 29.93 in 10.0 mi WSW 12.7 mph - 0.00 in   Partly Cloudy
2:59 PM 82.4 °F 86.3 °F 69.8 °F 66% 29.93 in 10.0 mi West 13.8 mph - N/A Rain Light Rain
3:28 PM 82.4 °F 86.3 °F 69.8 °F 66% 29.92 in 10.0 mi WSW 10.4 mph - N/A   Scattered Clouds
3:29 PM 82.4 °F 86.3 °F 69.8 °F 66% 29.92 in 10.0 mi SW 10.4 mph - N/A Rain Light Rain
3:58 PM 81.3 °F 84.8 °F 69.8 °F 68% 29.92 in 10.0 mi WSW 15.0 mph - 0.00 in Rain Light Rain
4:04 PM 82.4 °F 86.3 °F 69.8 °F 66% 29.91 in 10.0 mi WSW 12.7 mph - N/A   Mostly Cloudy
4:05 PM 82.4 °F 86.3 °F 69.8 °F 66% 29.91 in 10.0 mi WSW 13.8 mph - N/A Rain Light Rain
4:13 PM 82.4 °F 86.3 °F 69.8 °F 66% 29.91 in 10.0 mi WSW 13.8 mph - N/A   Mostly Cloudy
4:18 PM 80.6 °F 83.9 °F 69.8 °F 70% 29.91 in 10.0 mi WSW 15.0 mph - N/A   Mostly Cloudy
4:22 PM 80.6 °F 83.9 °F 69.8 °F 70% 29.91 in 10.0 mi West 12.7 mph - N/A Rain Light Rain
4:25 PM 80.6 °F 83.9 °F 69.8 °F 70% 29.91 in 10.0 mi WSW 13.8 mph - N/A   Mostly Cloudy
4:26 PM 80.6 °F 83.9 °F 69.8 °F 70% 29.91 in 10.0 mi WSW 13.8 mph - N/A   Mostly Cloudy
4:48 PM 80.6 °F 83.9 °F 69.8 °F 70% 29.91 in 10.0 mi WSW 12.7 mph - N/A Rain Light Rain
4:58 PM 80.1 °F 83.0 °F 69.4 °F 70% 29.92 in 10.0 mi SW 15.0 mph - 0.00 in Rain Light Rain
5:04 PM 80.6 °F 83.9 °F 69.8 °F 70% 29.91 in 10.0 mi WSW 13.8 mph - N/A   Partly Cloudy
5:10 PM 80.6 °F 83.9 °F 69.8 °F 70% 29.91 in 10.0 mi West 13.8 mph - N/A Rain Light Rain
5:43 PM 78.8 °F - 69.8 °F 74% 29.90 in 10.0 mi SW 11.5 mph - N/A   Clear
5:53 PM 78.8 °F - 69.8 °F 74% 29.90 in 10.0 mi SW 12.7 mph - N/A Rain Light Rain
5:58 PM 79.0 °F - 69.8 °F 73% 29.91 in 10.0 mi SW 12.7 mph - 0.00 in Rain Light Rain
6:05 PM 78.8 °F - 69.8 °F 74% 29.89 in 10.0 mi SW 10.4 mph - N/A   Clear
6:13 PM 78.8 °F - 69.8 °F 74% 29.89 in 10.0 mi SW 10.4 mph - N/A Rain Light Rain
6:49 PM 78.8 °F - 69.8 °F 74% 29.88 in 10.0 mi SW 9.2 mph - N/A   Clear
6:58 PM 77.7 °F - 70.3 °F 78% 29.89 in 10.0 mi SW 6.9 mph - 0.00 in   Clear
7:58 PM 73.9 °F - 70.0 °F 87% 29.89 in 10.0 mi South 4.6 mph - N/A   Clear
8:18 PM 73.4 °F - 69.8 °F 88% 29.87 in 10.0 mi SSW 6.9 mph - N/A Rain Light Rain
8:58 PM 72.7 °F - 70.2 °F 92% 29.89 in 10.0 mi SSW 6.9 mph - 0.00 in Rain Light Rain
9:58 PM 71.8 °F - 69.6 °F 93% 29.90 in 10.0 mi SSW 6.9 mph - 0.00 in Rain Light Rain
10:56 PM 69.8 °F - 69.8 °F 100% 29.90 in 10.0 mi SW 5.8 mph - N/A   Clear
10:58 PM 69.8 °F - 69.8 °F 100% 29.91 in 10.0 mi SW 6.9 mph - 0.00 in   Clear
11:35 PM 69.8 °F - 69.8 °F 100% 29.90 in 10.0 mi SSW 6.9 mph - N/A Rain Light Rain
11:45 PM 69.8 °F - 69.8 °F 100% 29.90 in 10.0 mi SSW 5.8 mph - N/A   Mostly Cloudy
11:58 PM 70.2 °F - 69.3 °F 97% 29.91 in 10.0 mi SSW 6.9 mph - 0.00 in   Overcast